ASTRA 1KR

Last updated on Sun Mar 15 2026 00:02:52 GMT+0000 (Coordinated Universal Time)

1 29055U 06012A 26073.57227546 .00000118 00000+0 00000+0 0 9994 2 29055 0.2282 82.0059 0003179 268.2497 46.9327 1.00273870 44747
UTC large
Height (km)
Speed (km/s)
/
Latitude / Longitude
Inclination (degrees)
Orbital Period (minutes)
Azimuth
Elevation
Range (km)
Doppler Factor

Next 0 passes for location: London (51.5072 / 0.1276)

Sorry there are no passes over London.